Regional Weather Roundup
Issued by NWS

Home | Current Version | Previous Version | Graphics & Text | Print | Product List | Glossary On
Versions: 1 2 3 4 5 6 7 8 9 10 11 12 13 14 15 16 17 18 19 20 21 22 23 24 25 26 27 28 29 30 31 32 33 34 35 36 37 38 39 40 41 42 43 44 45 46 47 48 49 50
114
ASUS43 KOAX 172002
RWRNE

WEATHER ROUNDUP FOR NEBRASKA
NATIONAL WEATHER SERVICE OMAHA NE
300 PM CDT THU AUG 17 2017

NOTES: SATELLITE DATA IS BEING USED TO AUGMENT CLOUD COVER ABOVE
       12000 FEET.
       "FAIR" INDICATES FEW OR NO CLOUDS BELOW 12,000 FEET WITH NO
       SIGNIFICANT WEATHER AND/OR OBSTRUCTIONS TO VISIBILITY.


NEZ001>004-019>022-054>056-172100-
NEBRASKA PANHANDLE

CITY           SKY/WX    TMP DP  RH WIND       PRES   REMARKS
SCOTTSBLUFF    SUNNY     86  47  25 NW5       30.00F
ALLIANCE       SUNNY     85  51  31 S10       29.99F
CHADRON        SUNNY     89  47  23 S9        29.92F
GORDON         FAIR      88  50  27 SW9G17    29.96S
KIMBALL        CLOUDY    81  45  27 SE3       30.08F
SIDNEY         SUNNY     89  45  21 SW13G20   30.05F
$$

NEZ057>060-069>072-079>082-172100-
SOUTHWEST NEBRASKA

CITY           SKY/WX    TMP DP  RH WIND       PRES   REMARKS
NORTH PLATTE   SUNNY     86  60  41 SW10      29.99F
IMPERIAL       SUNNY     88  54  31 SW15      30.02F
LEXINGTON      SUNNY     84  55  37 SW6       30.01F
MCCOOK         SUNNY     87  57  35 SW8       30.01F
OGALLALA       SUNNY     86  58  39 S10G21    30.00F
$$

NEZ005>010-023>029-035>040-094-172100-
NORTH CENTRAL NEBRASKA

CITY           SKY/WX    TMP DP  RH WIND       PRES   REMARKS
VALENTINE      SUNNY     90  50  25 SW15      29.92F
AINSWORTH      SUNNY     85  55  36 S9        29.95F
BROKEN BOW     SUNNY     86  51  29 SW8       29.98F
O`NEILL        SUNNY     82  61  48 W5        29.95F
ORD            SUNNY     83  56  39 CALM      29.96F
THEDFORD       SUNNY     87  54  31 S13G24    29.98F
$$

NEZ041-046>049-061>064-073>077-083>087-172100-
SOUTH CENTRAL NEBRASKA

CITY           SKY/WX    TMP DP  RH WIND       PRES   REMARKS
GRAND ISLAND   SUNNY     84  62  47 W7        29.99F
AURORA         SUNNY     81  62  51 W6        29.98F
HASTINGS       SUNNY     82  60  47 VRB6      30.01F
HEBRON         SUNNY     85  58  40 NW8       29.99S
HOLDREGE       SUNNY     81  59  45 SW6       30.02S
KEARNEY        SUNNY     83  58  42 SW10      30.01F
YORK           SUNNY     81  64  57 W8        29.98F
$$

NEZ011>018-030>034-042>045-172100-
NORTHEAST NEBRASKA

CITY           SKY/WX    TMP DP  RH WIND       PRES   REMARKS
NORFOLK        SUNNY     80  57  45 W12       29.93F
ALBION         SUNNY     83  59  43 W8        29.96F
BLAIR          RAIN      79  60  51 W13       29.94S
COLUMBUS       SUNNY     79  61  53 NW8       29.97S
FREMONT        SUNNY     80  57  45 NW13      29.95S
TEKAMAH        SUNNY     80  61  52 W9        29.92R
WAYNE          SUNNY     79  60  51 W10       29.93F
$$

NEZ050>053-065>068-078-088>093-172100-
SOUTHEAST NEBRASKA

CITY           SKY/WX    TMP DP  RH WIND       PRES   REMARKS
LINCOLN        SUNNY     84  56  38 NW14      29.96F
OMAHA EPPLEY   SUNNY     82  57  42 NW17      29.92S
BEATRICE       SUNNY     85  57  38 NW13      29.97F
FALLS CITY     SUNNY     82  59  45 NW9G18    29.93F
NEBRASKA CITY  SUNNY     82  59  46 NW15      29.95F
PLATTSMOUTH    SUNNY     80  58  46 W14       29.94S
$$

NEZ044-045-051>053-067-172100-
OMAHA AREA

CITY           SKY/WX    TMP DP  RH WIND       PRES   REMARKS
OMAHA EPPLEY   SUNNY     82  57  42 NW17      29.92S
BLAIR          RAIN      79  60  51 W13       29.94S
FREMONT        SUNNY     80  57  45 NW13      29.95S
MILLARD        SUNNY     82  59  45 W17       29.93S
OFFUTT AFB     SUNNY     84  55  36 NW15      29.92S
PLATTSMOUTH    SUNNY     80  58  46 W14       29.94S
WAHOO          FAIR      79  62  55 NW10      29.95F
$$




USA.gov is the U.S. government's official web portal to all federal, state and local government web resources and services.